;kW;;;;kWh
01.01.2016 00:00;4.283;;;Jan;3.378.812
01.01.2016 00:15;3.804;;;Feb;3.265.135
01.01.2016 00:30;3.412;;;Mrz;3.291.000
01.01.2016 00:45;3.099;;;Apr;3.079.901
01.01.2016 01:00;2.783;;;Mai;2.728.430
01.01.2016 01:15;2.554;;;Jun;2.869.357
01.01.2016 01:30;2.354;;;Jul;2.925.436
01.01.2016 01:45;2.224;;;Aug;2.850.940
01.01.2016 02:00;2.190;;;Sep;3.020.536
01.01.2016 02:15;2.140;;;Okt;3.164.346
01.01.2016 02:30;2.081;;;Nov;3.387.410
01.01.2016 02:45;2.081;;;Dez;3.458.686
01.01.2016 03:00;2.098;;;;
01.01.2016 03:15;2.107;;;Summe;37.419.989
01.01.2016 03:30;2.125;;;;
01.01.2016 03:45;2.134;;;;
01.01.2016 04:00;2.134;;;;
01.01.2016 04:15;2.119;;;;
01.01.2016 04:30;2.127;;;;
01.01.2016 04:45;2.135;;;;
01.01.2016 05:00;2.120;;;;
01.01.2016 05:15;2.047;;;;
01.01.2016 05:30;1.836;;;;
01.01.2016 05:45;1.519;;;;
01.01.2016 06:00;701;;;;
01.01.2016 06:15;738;;;;
01.01.2016 06:30;774;;;;
01.01.2016 06:45;807;;;;
01.01.2016 07:00;853;;;;
01.01.2016 07:15;913;;;;
01.01.2016 07:30;987;;;;
01.01.2016 07:45;1.106;;;;
01.01.2016 08:00;1.255;;;;
01.01.2016 08:15;1.421;;;;
01.01.2016 08:30;1.650;;;;
01.01.2016 08:45;1.934;;;;
01.01.2016 09:00;2.254;;;;
01.01.2016 09:15;2.563;;;;
01.01.2016 09:30;2.854;;;;
01.01.2016 09:45;3.132;;;;
01.01.2016 10:00;3.421;;;;
01.01.2016 10:15;3.673;;;;
01.01.2016 10:30;3.916;;;;
01.01.2016 10:45;4.161;;;;
01.01.2016 11:00;4.409;;;;
01.01.2016 11:15;4.676;;;;
01.01.2016 11:30;4.869;;;;
01.01.2016 11:45;4.950;;;;
01.01.2016 12:00;4.997;;;;
01.01.2016 12:15;4.938;;;;
01.01.2016 12:30;4.815;;;;
01.01.2016 12:45;4.578;;;;
01.01.2016 13:00;4.292;;;;
01.01.2016 13:15;3.945;;;;
01.01.2016 13:30;3.604;;;;
01.01.2016 13:45;3.289;;;;
01.01.2016 14:00;3.018;;;;
01.01.2016 14:15;2.808;;;;
01.01.2016 14:30;2.618;;;;
01.01.2016 14:45;2.452;;;;
01.01.2016 15:00;2.331;;;;
01.01.2016 15:15;2.224;;;;
01.01.2016 15:30;2.150;;;;
01.01.2016 15:45;2.098;;;;
01.01.2016 16:00;2.062;;;;
01.01.2016 16:15;2.070;;;;
01.01.2016 16:30;2.171;;;;
01.01.2016 16:45;2.314;;;;
01.01.2016 17:00;2.516;;;;
01.01.2016 17:15;2.775;;;;
01.01.2016 17:30;3.053;;;;
01.01.2016 17:45;3.334;;;;
01.01.2016 18:00;3.592;;;;
01.01.2016 18:15;3.790;;;;
01.01.2016 18:30;3.991;;;;
01.01.2016 18:45;4.171;;;;
01.01.2016 19:00;4.344;;;;
01.01.2016 19:15;4.486;;;;
01.01.2016 19:30;4.561;;;;
01.01.2016 19:45;4.499;;;;
01.01.2016 20:00;4.265;;;;
01.01.2016 20:15;3.937;;;;
01.01.2016 20:30;3.597;;;;
01.01.2016 20:45;3.371;;;;
01.01.2016 21:00;7.326;;;;
01.01.2016 21:15;7.106;;;;
01.01.2016 21:30;7.287;;;;
01.01.2016 21:45;7.236;;;;
01.01.2016 22:00;8.085;;;;
01.01.2016 22:15;7.552;;;;
01.01.2016 22:30;6.795;;;;
01.01.2016 22:45;6.017;;;;
01.01.2016 23:00;6.268;;;;
01.01.2016 23:15;5.528;;;;
01.01.2016 23:30;4.848;;;;
01.01.2016 23:45;4.761;;;;
02.01.2016 00:00;3.760;;;;
02.01.2016 00:15;3.439;;;;
02.01.2016 00:30;3.188;;;;
02.01.2016 00:45;2.979;;;;
02.01.2016 01:00;2.734;;;;
02.01.2016 01:15;2.533;;;;
02.01.2016 01:30;2.328;;;;
02.01.2016 01:45;2.181;;;;
02.01.2016 02:00;2.143;;;;
02.01.2016 02:15;2.084;;;;
02.01.2016 02:30;2.054;;;;
02.01.2016 02:45;2.074;;;;
02.01.2016 03:00;2.098;;;;
02.01.2016 03:15;2.120;;;;
02.01.2016 03:30;2.157;;;;
02.01.2016 03:45;2.188;;;;
02.01.2016 04:00;2.208;;;;
02.01.2016 04:15;2.233;;;;
02.01.2016 04:30;2.260;;;;
02.01.2016 04:45;2.293;;;;
02.01.2016 05:00;2.287;;;;
02.01.2016 05:15;2.256;;;;
02.01.2016 05:30;2.102;;;;
02.01.2016 05:45;1.850;;;;
02.01.2016 06:00;1.078;;;;
02.01.2016 06:15;1.212;;;;
02.01.2016 06:30;1.372;;;;
02.01.2016 06:45;1.586;;;;
02.01.2016 07:00;1.837;;;;
02.01.2016 07:15;2.107;;;;
02.01.2016 07:30;2.423;;;;
02.01.2016 07:45;2.767;;;;
02.01.2016 08:00;3.172;;;;
02.01.2016 08:15;3.493;;;;
02.01.2016 08:30;3.759;;;;
02.01.2016 08:45;4.057;;;;
02.01.2016 09:00;4.320;;;;
02.01.2016 09:15;4.496;;;;
02.01.2016 09:30;4.627;;;;
02.01.2016 09:45;4.756;;;;
02.01.2016 10:00;4.861;;;;
02.01.2016 10:15;4.926;;;;
02.01.2016 10:30;4.979;;;;
02.01.2016 10:45;5.045;;;;
02.01.2016 11:00;5.090;;;;
02.01.2016 11:15;5.154;;;;
02.01.2016 11:30;5.207;;;;
02.01.2016 11:45;5.256;;;;
02.01.2016 12:00;5.322;;;;
02.01.2016 12:15;5.392;;;;
02.01.2016 12:30;5.449;;;;
02.01.2016 12:45;5.458;;;;
02.01.2016 13:00;5.361;;;;
02.01.2016 13:15;5.219;;;;
02.01.2016 13:30;5.012;;;;
02.01.2016 13:45;4.800;;;;
02.01.2016 14:00;4.575;;;;
02.01.2016 14:15;4.344;;;;
02.01.2016 14:30;4.151;;;;
02.01.2016 14:45;3.986;;;;
02.01.2016 15:00;3.877;;;;
02.01.2016 15:15;3.800;;;;
02.01.2016 15:30;3.739;;;;
02.01.2016 15:45;3.717;;;;
02.01.2016 16:00;3.752;;;;
02.01.2016 16:15;3.859;;;;
02.01.2016 16:30;4.033;;;;
02.01.2016 16:45;4.284;;;;
02.01.2016 17:00;4.651;;;;
02.01.2016 17:15;5.129;;;;
02.01.2016 17:30;5.610;;;;
02.01.2016 17:45;6.028;;;;
02.01.2016 18:00;6.268;;;;
02.01.2016 18:15;6.382;;;;
02.01.2016 18:30;6.448;;;;
02.01.2016 18:45;6.441;;;;
02.01.2016 19:00;6.417;;;;
02.01.2016 19:15;6.386;;;;
02.01.2016 19:30;6.238;;;;
02.01.2016 19:45;5.927;;;;
02.01.2016 20:00;5.368;;;;
02.01.2016 20:15;4.719;;;;
02.01.2016 20:30;4.124;;;;
02.01.2016 20:45;3.724;;;;
02.01.2016 21:00;7.396;;;;
02.01.2016 21:15;7.025;;;;
02.01.2016 21:30;7.139;;;;
02.01.2016 21:45;7.067;;;;
02.01.2016 22:00;7.916;;;;
02.01.2016 22:15;7.530;;;;
02.01.2016 22:30;6.916;;;;
02.01.2016 22:45;6.312;;;;
02.01.2016 23:00;6.601;;;;
02.01.2016 23:15;5.927;;;;
02.01.2016 23:30;5.235;;;;
02.01.2016 23:45;4.640;;;;
03.01.2016 00:00;4.202;;;;
03.01.2016 00:15;4.283;;;;
03.01.2016 00:30;3.804;;;;
03.01.2016 00:45;3.412;;;;
03.01.2016 01:00;3.099;;;;
03.01.2016 01:15;2.783;;;;
03.01.2016 01:30;2.554;;;;
03.01.2016 01:45;2.354;;;;
03.01.2016 02:00;2.224;;;;
03.01.2016 02:15;2.190;;;;
03.01.2016 02:30;2.140;;;;
03.01.2016 02:45;2.081;;;;
03.01.2016 03:00;2.081;;;;
03.01.2016 03:15;2.098;;;;
03.01.2016 03:30;2.107;;;;
03.01.2016 03:45;2.125;;;;
03.01.2016 04:00;2.134;;;;
03.01.2016 04:15;2.134;;;;
03.01.2016 04:30;2.119;;;;
03.01.2016 04:45;2.127;;;;
03.01.2016 05:00;2.135;;;;
03.01.2016 05:15;2.120;;;;
03.01.2016 05:30;2.047;;;;
03.01.2016 05:45;1.836;;;;
03.01.2016 06:00;1.519;;;;
03.01.2016 06:15;701;;;;
03.01.2016 06:30;738;;;;
03.01.2016 06:45;774;;;;
03.01.2016 07:00;807;;;;
03.01.2016 07:15;853;;;;
03.01.2016 07:30;913;;;;
03.01.2016 07:45;987;;;;
03.01.2016 08:00;1.106;;;;
03.01.2016 08:15;1.255;;;;
03.01.2016 08:30;1.421;;;;
03.01.2016 08:45;1.650;;;;
03.01.2016 09:00;1.934;;;;
03.01.2016 09:15;2.254;;;;
03.01.2016 09:30;2.563;;;;
03.01.2016 09:45;2.854;;;;
03.01.2016 10:00;3.132;;;;
03.01.2016 10:15;3.421;;;;
03.01.2016 10:30;3.673;;;;
03.01.2016 10:45;3.916;;;;
03.01.2016 11:00;4.161;;;;
03.01.2016 11:15;4.409;;;;
03.01.2016 11:30;4.676;;;;
03.01.2016 11:45;4.869;;;;
03.01.2016 12:00;4.950;;;;
03.01.2016 12:15;4.997;;;;
03.01.2016 12:30;4.938;;;;
03.01.2016 12:45;4.815;;;;
03.01.2016 13:00;4.578;;;;
03.01.2016 13:15;4.292;;;;
03.01.2016 13:30;3.945;;;;
03.01.2016 13:45;3.604;;;;
03.01.2016 14:00;3.289;;;;
03.01.2016 14:15;3.018;;;;
03.01.2016 14:30;2.808;;;;
03.01.2016 14:45;2.618;;;;
03.01.2016 15:00;2.452;;;;
03.01.2016 15:15;2.331;;;;
03.01.2016 15:30;2.224;;;;
03.01.2016 15:45;2.150;;;;
03.01.2016 16:00;2.098;;;;
03.01.2016 16:15;2.062;;;;
03.01.2016 16:30;2.070;;;;
03.01.2016 16:45;2.171;;;;
03.01.2016 17:00;2.314;;;;
03.01.2016 17:15;2.516;;;;
03.01.2016 17:30;2.775;;;;
03.01.2016 17:45;3.053;;;;
03.01.2016 18:00;3.334;;;;
03.01.2016 18:15;3.592;;;;
03.01.2016 18:30;3.790;;;;
03.01.2016 18:45;3.991;;;;
03.01.2016 19:00;4.171;;;;
03.01.2016 19:15;4.344;;;;
03.01.2016 19:30;4.486;;;;
03.01.2016 19:45;4.561;;;;
03.01.2016 20:00;4.499;;;;
03.01.2016 20:15;4.265;;;;
03.01.2016 20:30;3.937;;;;
03.01.2016 20:45;3.597;;;;
03.01.2016 21:00;3.371;;;;
03.01.2016 21:15;7.326;;;;
03.01.2016 21:30;7.106;;;;
03.01.2016 21:45;7.287;;;;
03.01.2016 22:00;7.236;;;;
03.01.2016 22:15;8.085;;;;
03.01.2016 22:30;7.552;;;;
03.01.2016 22:45;6.795;;;;
03.01.2016 23:00;6.017;;;;
03.01.2016 23:15;6.268;;;;
03.01.2016 23:30;5.528;;;;
03.01.2016 23:45;4.848;;;;
04.01.2016 00:00;4.238;;;;
04.01.2016 00:15;3.579;;;;
04.01.2016 00:30;3.134;;;;
04.01.2016 00:45;2.772;;;;
04.01.2016 01:00;2.509;;;;
04.01.2016 01:15;2.292;;;;
04.01.2016 01:30;2.144;;;;
04.01.2016 01:45;2.027;;;;
04.01.2016 02:00;1.966;;;;
04.01.2016 02:15;1.971;;;;
04.01.2016 02:30;1.947;;;;
04.01.2016 02:45;1.943;;;;
04.01.2016 03:00;1.961;;;;
04.01.2016 03:15;2.003;;;;
04.01.2016 03:30;2.035;;;;
04.01.2016 03:45;2.069;;;;
04.01.2016 04:00;2.117;;;;
04.01.2016 04:15;2.173;;;;
04.01.2016 04:30;2.234;;;;
04.01.2016 04:45;2.308;;;;
04.01.2016 05:00;2.383;;;;
04.01.2016 05:15;2.465;;;;
04.01.2016 05:30;2.512;;;;
04.01.2016 05:45;2.469;;;;
04.01.2016 06:00;2.405;;;;
04.01.2016 06:15;1772;;;;
04.01.2016 06:30;2206;;;;
04.01.2016 06:45;2741;;;;
04.01.2016 07:00;3335;;;;
04.01.2016 07:15;4070;;;;
04.01.2016 07:30;4732;;;;
04.01.2016 07:45;5393;;;;
04.01.2016 08:00;6.001;;;;
04.01.2016 08:15;6.495;;;;
04.01.2016 08:30;6.795;;;;
04.01.2016 08:45;7.051;;;;
04.01.2016 09:00;7.187;;;;
04.01.2016 09:15;7.097;;;;
04.01.2016 09:30;7.095;;;;
04.01.2016 09:45;7.118;;;;
04.01.2016 10:00;7.117;;;;
04.01.2016 10:15;7.088;;;;
04.01.2016 10:30;7.026;;;;
04.01.2016 10:45;7.053;;;;
04.01.2016 11:00;7.109;;;;
04.01.2016 11:15;7.125;;;;
04.01.2016 11:30;7.156;;;;
04.01.2016 11:45;7.197;;;;
04.01.2016 12:00;7.209;;;;
04.01.2016 12:15;7.087;;;;
04.01.2016 12:30;7.031;;;;
04.01.2016 12:45;7.039;;;;
04.01.2016 13:00;6.962;;;;
04.01.2016 13:15;6.748;;;;
04.01.2016 13:30;6.485;;;;
04.01.2016 13:45;6.160;;;;
04.01.2016 14:00;5.917;;;;
04.01.2016 14:15;5.813;;;;
04.01.2016 14:30;5.752;;;;
04.01.2016 14:45;5.704;;;;
04.01.2016 15:00;5.663;;;;
04.01.2016 15:15;5.600;;;;
04.01.2016 15:30;5.575;;;;
04.01.2016 15:45;5.466;;;;
04.01.2016 16:00;5.375;;;;
04.01.2016 16:15;5.255;;;;
04.01.2016 16:30;5.213;;;;
04.01.2016 16:45;5.335;;;;
04.01.2016 17:00;5.437;;;;
04.01.2016 17:15;5.607;;;;
04.01.2016 17:30;5.824;;;;
04.01.2016 17:45;6.051;;;;
04.01.2016 18:00;6.298;;;;
04.01.2016 18:15;6.454;;;;
04.01.2016 18:30;6.651;;;;
04.01.2016 18:45;6.842;;;;
04.01.2016 19:00;6.933;;;;
04.01.2016 19:15;6.931;;;;
04.01.2016 19:30;6.825;;;;
04.01.2016 19:45;6.682;;;;
04.01.2016 20:00;6.423;;;;
04.01.2016 20:15;5.900;;;;
04.01.2016 20:30;5.340;;;;
04.01.2016 20:45;4.902;;;;
04.01.2016 21:00;4.580;;;;
04.01.2016 21:15;8.639;;;;
04.01.2016 21:30;8.251;;;;
04.01.2016 21:45;8.283;;;;
04.01.2016 22:00;8.104;;;;
04.01.2016 22:15;8.771;;;;
04.01.2016 22:30;8.146;;;;
04.01.2016 22:45;7.279;;;;
04.01.2016 23:00;6.462;;;;
04.01.2016 23:15;6.608;;;;
04.01.2016 23:30;5.826;;;;
04.01.2016 23:45;5.088;;;;
05.01.2016 00:00;4.453;;;;
05.01.2016 00:15;3.605;;;;
05.01.2016 00:30;3.164;;;;
05.01.2016 00:45;2.805;;;;
05.01.2016 01:00;2.518;;;;
05.01.2016 01:15;2.292;;;;
05.01.2016 01:30;2.150;;;;
05.01.2016 01:45;2.037;;;;
05.01.2016 02:00;1.970;;;;
05.01.2016 02:15;1.970;;;;
05.01.2016 02:30;1.956;;;;
05.01.2016 02:45;1.928;;;;
05.01.2016 03:00;1.959;;;;
05.01.2016 03:15;1.991;;;;
05.01.2016 03:30;2.005;;;;
05.01.2016 03:45;2.045;;;;
05.01.2016 04:00;2.101;;;;
05.01.2016 04:15;2.154;;;;
05.01.2016 04:30;2.223;;;;
05.01.2016 04:45;2.309;;;;
05.01.2016 05:00;2.390;;;;
05.01.2016 05:15;2.483;;;;
05.01.2016 05:30;2.529;;;;
05.01.2016 05:45;2.521;;;;
05.01.2016 06:00;2.485;;;;
05.01.2016 06:15;1.960;;;;
05.01.2016 06:30;2.459;;;;
05.01.2016 06:45;3.034;;;;
05.01.2016 07:00;3.657;;;;
05.01.2016 07:15;4.443;;;;
05.01.2016 07:30;5.142;;;;
05.01.2016 07:45;5.851;;;;
05.01.2016 08:00;6.488;;;;
05.01.2016 08:15;7.018;;;;
05.01.2016 08:30;7.292;;;;
05.01.2016 08:45;7.560;;;;
05.01.2016 09:00;7.684;;;;
05.01.2016 09:15;7.534;;;;
05.01.2016 09:30;7.510;;;;
05.01.2016 09:45;7.575;;;;
05.01.2016 10:00;7.566;;;;
05.01.2016 10:15;7.537;;;;
05.01.2016 10:30;7.509;;;;
05.01.2016 10:45;7.556;;;;
05.01.2016 11:00;7.596;;;;
05.01.2016 11:15;7.613;;;;
05.01.2016 11:30;7.602;;;;
05.01.2016 11:45;7.601;;;;
05.01.2016 12:00;7.575;;;;
05.01.2016 12:15;7.400;;;;
05.01.2016 12:30;7.396;;;;
05.01.2016 12:45;7.438;;;;
05.01.2016 13:00;7.322;;;;
05.01.2016 13:15;7.079;;;;
05.01.2016 13:30;6.748;;;;
05.01.2016 13:45;6.450;;;;
05.01.2016 14:00;6.072;;;;
05.01.2016 14:15;5.864;;;;
05.01.2016 14:30;5.821;;;;
05.01.2016 14:45;5.809;;;;
05.01.2016 15:00;5.825;;;;
05.01.2016 15:15;5.840;;;;
05.01.2016 15:30;5.775;;;;
05.01.2016 15:45;5.670;;;;
05.01.2016 16:00;5.577;;;;
05.01.2016 16:15;5.508;;;;
05.01.2016 16:30;5.484;;;;
05.01.2016 16:45;5.590;;;;
05.01.2016 17:00;5.744;;;;
05.01.2016 17:15;5.900;;;;
05.01.2016 17:30;6.141;;;;
05.01.2016 17:45;6.398;;;;
05.01.2016 18:00;6.615;;;;
05.01.2016 18:15;6.764;;;;
05.01.2016 18:30;6.962;;;;
05.01.2016 18:45;7.136;;;;
05.01.2016 19:00;7.240;;;;
05.01.2016 19:15;7.216;;;;
05.01.2016 19:30;7.109;;;;
05.01.2016 19:45;6.970;;;;
05.01.2016 20:00;6.691;;;;
05.01.2016 20:15;6.160;;;;
05.01.2016 20:30;5.530;;;;
05.01.2016 20:45;5.072;;;;
05.01.2016 21:00;4.738;;;;
05.01.2016 21:15;8.530;;;;
05.01.2016 21:30;8.167;;;;
05.01.2016 21:45;8.175;;;;
05.01.2016 22:00;7.984;;;;
05.01.2016 22:15;8.538;;;;
05.01.2016 22:30;7.906;;;;
05.01.2016 22:45;7.074;;;;
05.01.2016 23:00;6.291;;;;
05.01.2016 23:15;6.374;;;;
05.01.2016 23:30;5.589;;;;
05.01.2016 23:45;4.845;;;;
06.01.2016 00:00;4.283;;;;
06.01.2016 00:15;3.804;;;;
06.01.2016 00:30;3.412;;;;
06.01.2016 00:45;3.099;;;;
06.01.2016 01:00;2.783;;;;
06.01.2016 01:15;2.554;;;;
06.01.2016 01:30;2.354;;;;
06.01.2016 01:45;2.224;;;;
06.01.2016 02:00;2.190;;;;
06.01.2016 02:15;2.140;;;;
06.01.2016 02:30;2.081;;;;
06.01.2016 02:45;2.081;;;;
06.01.2016 03:00;2.098;;;;
06.01.2016 03:15;2.107;;;;
06.01.2016 03:30;2.125;;;;
06.01.2016 03:45;2.134;;;;
06.01.2016 04:00;2.134;;;;
06.01.2016 04:15;2.119;;;;
06.01.2016 04:30;2.127;;;;
06.01.2016 04:45;2.135;;;;
06.01.2016 05:00;2.120;;;;
06.01.2016 05:15;2.047;;;;
06.01.2016 05:30;1.836;;;;
06.01.2016 05:45;1.519;;;;
06.01.2016 06:00;701;;;;
06.01.2016 06:15;738;;;;
06.01.2016 06:30;774;;;;
06.01.2016 06:45;807;;;;
06.01.2016 07:00;853;;;;
06.01.2016 07:15;913;;;;
06.01.2016 07:30;987;;;;
06.01.2016 07:45;1.106;;;;
06.01.2016 08:00;1.255;;;;
06.01.2016 08:15;1.421;;;;
06.01.2016 08:30;1.650;;;;
06.01.2016 08:45;1.934;;;;
06.01.2016 09:00;2.254;;;;
06.01.2016 09:15;2.563;;;;
06.01.2016 09:30;2.854;;;;
06.01.2016 09:45;3.132;;;;
06.01.2016 10:00;3.421;;;;
06.01.2016 10:15;3.673;;;;
06.01.2016 10:30;3.916;;;;
06.01.2016 10:45;4.161;;;;
06.01.2016 11:00;4.409;;;;
06.01.2016 11:15;4.676;;;;
06.01.2016 11:30;4.869;;;;
06.01.2016 11:45;4.950;;;;
06.01.2016 12:00;4.997;;;;
06.01.2016 12:15;4.938;;;;
06.01.2016 12:30;4.815;;;;
06.01.2016 12:45;4.578;;;;
06.01.2016 13:00;4.292;;;;
06.01.2016 13:15;3.945;;;;
06.01.2016 13:30;3.604;;;;
06.01.2016 13:45;3.289;;;;
06.01.2016 14:00;3.018;;;;
06.01.2016 14:15;2.808;;;;
06.01.2016 14:30;2.618;;;;
06.01.2016 14:45;2.452;;;;
06.01.2016 15:00;2.331;;;;
06.01.2016 15:15;2.224;;;;
06.01.2016 15:30;2.150;;;;
06.01.2016 15:45;2.098;;;;
06.01.2016 16:00;2.062;;;;
06.01.2016 16:15;2.070;;;;
06.01.2016 16:30;2.171;;;;
06.01.2016 16:45;2.314;;;;
06.01.2016 17:00;2.516;;;;
06.01.2016 17:15;2.775;;;;
06.01.2016 17:30;3.053;;;;
06.01.2016 17:45;3.334;;;;
06.01.2016 18:00;3.592;;;;
06.01.2016 18:15;3.790;;;;
06.01.2016 18:30;3.991;;;;
06.01.2016 18:45;4.171;;;;
06.01.2016 19:00;4.344;;;;
06.01.2016 19:15;4.486;;;;
06.01.2016 19:30;4.561;;;;
06.01.2016 19:45;4.499;;;;
06.01.2016 20:00;4.265;;;;
06.01.2016 20:15;3.937;;;;
06.01.2016 20:30;3.597;;;;
06.01.2016 20:45;3.371;;;;
06.01.2016 21:00;7.326;;;;
06.01.2016 21:15;7.106;;;;
06.01.2016 21:30;7.287;;;;
06.01.2016 21:45;7.236;;;;
06.01.2016 22:00;8.085;;;;
06.01.2016 22:15;7.552;;;;
06.01.2016 22:30;6.795;;;;
06.01.2016 22:45;6.017;;;;
06.01.2016 23:00;6.268;;;;
06.01.2016 23:15;5.528;;;;
06.01.2016 23:30;4.848;;;;
06.01.2016 23:45;4.238;;;;
07.01.2016 00:00;3.000;;;;
07.01.2016 00:15;2.600;;;;
07.01.2016 00:30;2.285;;;;
07.01.2016 00:45;2.033;;;;
07.01.2016 01:00;1.855;;;;
07.01.2016 01:15;1.713;;;;
07.01.2016 01:30;1.614;;;;
07.01.2016 01:45;1.566;;;;
07.01.2016 02:00;1.562;;;;
07.01.2016 02:15;1.555;;;;
07.01.2016 02:30;1.550;;;;
07.01.2016 02:45;1.568;;;;
07.01.2016 03:00;1.605;;;;
07.01.2016 03:15;1.646;;;;
07.01.2016 03:30;1.683;;;;
07.01.2016 03:45;1.750;;;;
07.01.2016 04:00;1.827;;;;
07.01.2016 04:15;1.883;;;;
07.01.2016 04:30;1.963;;;;
07.01.2016 04:45;2.042;;;;
07.01.2016 05:00;2.151;;;;
07.01.2016 05:15;2.222;;;;
07.01.2016 05:30;2.239;;;;
07.01.2016 05:45;2.255;;;;
07.01.2016 06:00;1.910;;;;
07.01.2016 06:15;2.384;;;;
07.01.2016 06:30;2.972;;;;
07.01.2016 06:45;3.619;;;;
07.01.2016 07:00;4.354;;;;
07.01.2016 07:15;5.028;;;;
07.01.2016 07:30;5.740;;;;
07.01.2016 07:45;6.378;;;;
07.01.2016 08:00;6.895;;;;
07.01.2016 08:15;7.126;;;;
07.01.2016 08:30;7.299;;;;
07.01.2016 08:45;7.423;;;;
07.01.2016 09:00;7.263;;;;
07.01.2016 09:15;7.192;;;;
07.01.2016 09:30;7.180;;;;
07.01.2016 09:45;7.157;;;;
07.01.2016 10:00;7.056;;;;
07.01.2016 10:15;6.983;;;;
07.01.2016 10:30;6.979;;;;
07.01.2016 10:45;6.975;;;;
07.01.2016 11:00;6.974;;;;
07.01.2016 11:15;6.966;;;;
07.01.2016 11:30;7.010;;;;
07.01.2016 11:45;7.000;;;;
07.01.2016 12:00;6.865;;;;
07.01.2016 12:15;6.880;;;;
07.01.2016 12:30;6.905;;;;
07.01.2016 12:45;6.853;;;;
07.01.2016 13:00;6.710;;;;
07.01.2016 13:15;6.430;;;;
07.01.2016 13:30;6.184;;;;
07.01.2016 13:45;5.844;;;;
07.01.2016 14:00;5.685;;;;
07.01.2016 14:15;5.694;;;;
07.01.2016 14:30;5.671;;;;
07.01.2016 14:45;5.670;;;;
07.01.2016 15:00;5.599;;;;
07.01.2016 15:15;5.601;;;;
07.01.2016 15:30;5.523;;;;
07.01.2016 15:45;5.466;;;;
07.01.2016 16:00;5.391;;;;
07.01.2016 16:15;5.420;;;;
07.01.2016 16:30;5.523;;;;
07.01.2016 16:45;5.645;;;;
07.01.2016 17:00;5.811;;;;
07.01.2016 17:15;6.040;;;;
07.01.2016 17:30;6.271;;;;
07.01.2016 17:45;6.475;;;;
07.01.2016 18:00;6.672;;;;
07.01.2016 18:15;6.868;;;;
07.01.2016 18:30;7.053;;;;
07.01.2016 18:45;7.155;;;;
07.01.2016 19:00;7.102;;;;
07.01.2016 19:15;6.994;;;;
07.01.2016 19:30;6.845;;;;
07.01.2016 19:45;6.530;;;;
07.01.2016 20:00;6.020;;;;
07.01.2016 20:15;5.447;;;;
07.01.2016 20:30;4.986;;;;
07.01.2016 20:45;4.670;;;;
07.01.2016 21:00;7.712;;;;
07.01.2016 21:15;7.329;;;;
07.01.2016 21:30;7.296;;;;
07.01.2016 21:45;7.036;;;;
07.01.2016 22:00;7.442;;;;
07.01.2016 22:15;6.888;;;;
07.01.2016 22:30;6.163;;;;
07.01.2016 22:45;5.468;;;;
07.01.2016 23:00;5.417;;;;
07.01.2016 23:15;4.733;;;;
07.01.2016 23:30;4.092;;;;
07.01.2016 23:45;3.549;;;;
08.01.2016 00:00;4.037;;;;
08.01.2016 00:15;3.836;;;;
08.01.2016 00:30;3.448;;;;
08.01.2016 00:45;3.131;;;;
08.01.2016 01:00;2.858;;;;
08.01.2016 01:15;2.678;;;;
08.01.2016 01:30;2.539;;;;
08.01.2016 01:45;2.470;;;;
08.01.2016 02:00;2.490;;;;
08.01.2016 02:15;2.463;;;;
08.01.2016 02:30;2.418;;;;
08.01.2016 02:45;2.430;;;;
08.01.2016 03:00;2.452;;;;
08.01.2016 03:15;2.451;;;;
08.01.2016 03:30;2.477;;;;
08.01.2016 03:45;2.524;;;;
08.01.2016 04:00;2.565;;;;
08.01.2016 04:15;2.591;;;;
08.01.2016 04:30;2.644;;;;
08.01.2016 04:45;2.702;;;;
08.01.2016 05:00;2.757;;;;
08.01.2016 05:15;2.773;;;;
08.01.2016 05:30;2.671;;;;
08.01.2016 05:45;2.512;;;;
08.01.2016 06:00;1.663;;;;
08.01.2016 06:15;2.103;;;;
08.01.2016 06:30;2.608;;;;
08.01.2016 06:45;3.119;;;;
08.01.2016 07:00;3.767;;;;
08.01.2016 07:15;4.360;;;;
08.01.2016 07:30;4.949;;;;
08.01.2016 07:45;5.504;;;;
08.01.2016 08:00;5.937;;;;
08.01.2016 08:15;6.205;;;;
08.01.2016 08:30;6.355;;;;
08.01.2016 08:45;6.471;;;;
08.01.2016 09:00;6.498;;;;
08.01.2016 09:15;6.474;;;;
08.01.2016 09:30;6.420;;;;
08.01.2016 09:45;6.352;;;;
08.01.2016 10:00;6.289;;;;
08.01.2016 10:15;6.207;;;;
08.01.2016 10:30;6.196;;;;
08.01.2016 10:45;6.197;;;;
08.01.2016 11:00;6.206;;;;
08.01.2016 11:15;6.224;;;;
08.01.2016 11:30;6.295;;;;
08.01.2016 11:45;6.322;;;;
08.01.2016 12:00;6.347;;;;
08.01.2016 12:15;6.289;;;;
08.01.2016 12:30;6.168;;;;
08.01.2016 12:45;6.067;;;;
08.01.2016 13:00;5.863;;;;
08.01.2016 13:15;5.626;;;;
08.01.2016 13:30;5.332;;;;
08.01.2016 13:45;5.090;;;;
08.01.2016 14:00;4.922;;;;
08.01.2016 14:15;4.845;;;;
08.01.2016 14:30;4.807;;;;
08.01.2016 14:45;4.800;;;;
08.01.2016 15:00;4.775;;;;
08.01.2016 15:15;4.715;;;;
08.01.2016 15:30;4.668;;;;
08.01.2016 15:45;4.669;;;;
08.01.2016 16:00;4.688;;;;
08.01.2016 16:15;4.767;;;;
08.01.2016 16:30;4.846;;;;
08.01.2016 16:45;4.981;;;;
08.01.2016 17:00;5.134;;;;
08.01.2016 17:15;5.349;;;;
08.01.2016 17:30;5.594;;;;
08.01.2016 17:45;5.839;;;;
08.01.2016 18:00;6.042;;;;
08.01.2016 18:15;6.225;;;;
08.01.2016 18:30;6.421;;;;
08.01.2016 18:45;6.532;;;;
08.01.2016 19:00;6.514;;;;
08.01.2016 19:15;6.430;;;;
08.01.2016 19:30;6.264;;;;
08.01.2016 19:45;6.022;;;;
08.01.2016 20:00;5.559;;;;
08.01.2016 20:15;5.015;;;;
08.01.2016 20:30;4.545;;;;
08.01.2016 20:45;4.231;;;;
08.01.2016 21:00;8.848;;;;
08.01.2016 21:15;8.485;;;;
08.01.2016 21:30;8.585;;;;
08.01.2016 21:45;8.441;;;;
08.01.2016 22:00;9.271;;;;
08.01.2016 22:15;8.649;;;;
08.01.2016 22:30;7.761;;;;
08.01.2016 22:45;6.961;;;;
08.01.2016 23:00;7.317;;;;
08.01.2016 23:15;6.478;;;;
08.01.2016 23:30;5.689;;;;
08.01.2016 23:45;5.013;;;;
09.01.2016 00:00;3.760;;;;
09.01.2016 00:15;3.439;;;;
09.01.2016 00:30;3.188;;;;
09.01.2016 00:45;2.979;;;;
09.01.2016 01:00;2.734;;;;
09.01.2016 01:15;2.533;;;;
09.01.2016 01:30;2.328;;;;
09.01.2016 01:45;2.181;;;;
09.01.2016 02:00;2.143;;;;
09.01.2016 02:15;2.084;;;;
09.01.2016 02:30;2.054;;;;
09.01.2016 02:45;2.074;;;;
09.01.2016 03:00;2.098;;;;
09.01.2016 03:15;2.120;;;;
09.01.2016 03:30;2.157;;;;
09.01.2016 03:45;2.188;;;;
09.01.2016 04:00;2.208;;;;
09.01.2016 04:15;2.233;;;;
09.01.2016 04:30;2.260;;;;
09.01.2016 04:45;2.293;;;;
09.01.2016 05:00;2.287;;;;
09.01.2016 05:15;2.256;;;;
09.01.2016 05:30;2.102;;;;
09.01.2016 05:45;1.850;;;;
09.01.2016 06:00;1.078;;;;
09.01.2016 06:15;1.212;;;;
09.01.2016 06:30;1.372;;;;
09.01.2016 06:45;1.586;;;;
09.01.2016 07:00;1.837;;;;
09.01.2016 07:15;2.107;;;;
09.01.2016 07:30;2.423;;;;
09.01.2016 07:45;2.767;;;;
09.01.2016 08:00;3.172;;;;
09.01.2016 08:15;3.493;;;;
09.01.2016 08:30;3.759;;;;
09.01.2016 08:45;4.057;;;;
09.01.2016 09:00;4.320;;;;
09.01.2016 09:15;4.496;;;;
09.01.2016 09:30;4.627;;;;
09.01.2016 09:45;4.756;;;;
09.01.2016 10:00;4.861;;;;
09.01.2016 10:15;4.926;;;;
09.01.2016 10:30;4.979;;;;
09.01.2016 10:45;5.045;;;;
09.01.2016 11:00;5.090;;;;
09.01.2016 11:15;5.154;;;;
09.01.2016 11:30;5.207;;;;
09.01.2016 11:45;5.256;;;;
09.01.2016 12:00;5.322;;;;
09.01.2016 12:15;5.392;;;;
09.01.2016 12:30;5.449;;;;
09.01.2016 12:45;5.458;;;;
09.01.2016 13:00;5.361;;;;
09.01.2016 13:15;5.219;;;;
09.01.2016 13:30;5.012;;;;
09.01.2016 13:45;4.800;;;;
09.01.2016 14:00;4.575;;;;
09.01.2016 14:15;4.344;;;;
09.01.2016 14:30;4.151;;;;
09.01.2016 14:45;3.986;;;;
09.01.2016 15:00;3.877;;;;
09.01.2016 15:15;3.800;;;;
09.01.2016 15:30;3.739;;;;
09.01.2016 15:45;3.717;;;;
09.01.2016 16:00;3.752;;;;
09.01.2016 16:15;3.859;;;;
09.01.2016 16:30;4.033;;;;
09.01.2016 16:45;4.284;;;;
09.01.2016 17:00;4.651;;;;
09.01.2016 17:15;5.129;;;;
09.01.2016 17:30;5.610;;;;
09.01.2016 17:45;6.028;;;;
09.01.2016 18:00;6.268;;;;
09.01.2016 18:15;6.382;;;;
09.01.2016 18:30;6.448;;;;
09.01.2016 18:45;6.441;;;;
09.01.2016 19:00;6.417;;;;
09.01.2016 19:15;6.386;;;;
09.01.2016 19:30;6.238;;;;
09.01.2016 19:45;5.927;;;;
09.01.2016 20:00;5.368;;;;
09.01.2016 20:15;4.719;;;;
09.01.2016 20:30;4.124;;;;
09.01.2016 20:45;3.724;;;;